TimeEDT,TemperatureF,Dew PointF,Humidity,Sea Level PressureIn,VisibilityMPH,Wind Direction,Wind SpeedMPH,Gust SpeedMPH,PrecipitationIn,Events,Conditions,WindDirDegrees,DateUTC
12:54 AM,64.0,61.0,90,30.03,10.0,SSW,4.6,-,N/A,,Clear,210,2013-06-16 04:54:00
1:54 AM,62.1,59.0,90,30.03,10.0,Calm,Calm,-,N/A,,Clear,0,2013-06-16 05:54:00
2:54 AM,60.1,59.0,96,30.02,10.0,Calm,Calm,-,N/A,,Clear,0,2013-06-16 06:54:00
3:54 AM,60.1,59.0,96,30.02,10.0,Calm,Calm,-,N/A,,Clear,0,2013-06-16 07:54:00
4:54 AM,62.1,61.0,96,30.03,10.0,Calm,Calm,-,N/A,,Clear,0,2013-06-16 08:54:00
5:54 AM,64.0,63.0,96,30.01,10.0,Calm,Calm,-,N/A,,Clear,0,2013-06-16 09:54:00
6:54 AM,66.0,64.9,96,30.01,4.0,SSW,4.6,-,N/A,,Partly Cloudy,200,2013-06-16 10:54:00
7:54 AM,69.1,66.9,93,30.01,8.0,SSW,6.9,-,N/A,,Clear,210,2013-06-16 11:54:00
8:54 AM,73.9,66.9,79,29.99,10.0,Calm,Calm,-,N/A,,Partly Cloudy,0,2013-06-16 12:54:00
9:54 AM,75.0,64.9,71,29.97,10.0,SW,9.2,-,N/A,,Partly Cloudy,220,2013-06-16 13:54:00
10:54 AM,75.9,66.9,74,29.95,10.0,SSW,8.1,-,N/A,,Clear,200,2013-06-16 14:54:00
11:54 AM,80.1,68.0,67,29.93,10.0,South,8.1,-,N/A,,Clear,190,2013-06-16 15:54:00
12:54 PM,82.9,64.9,54,29.90,10.0,SW,10.4,23.0,N/A,,Partly Cloudy,230,2013-06-16 16:54:00
1:54 PM,84.0,64.0,51,29.86,10.0,SW,11.5,23.0,N/A,,Partly Cloudy,220,2013-06-16 17:54:00
2:54 PM,82.9,61.0,47,29.87,10.0,SW,18.4,24.2,N/A,,Partly Cloudy,230,2013-06-16 18:54:00
3:54 PM,84.0,62.1,47,29.87,10.0,SW,13.8,-,N/A,,Clear,230,2013-06-16 19:54:00
4:54 PM,82.9,63.0,51,29.87,10.0,WSW,15.0,20.7,N/A,,Partly Cloudy,240,2013-06-16 20:54:00
5:54 PM,82.0,64.0,54,29.87,10.0,WSW,8.1,20.7,N/A,,Partly Cloudy,240,2013-06-16 21:54:00
6:54 PM,81.0,64.9,58,29.86,10.0,WSW,10.4,-,N/A,,Mostly Cloudy,240,2013-06-16 22:54:00
7:54 PM,80.1,66.9,64,29.87,10.0,WSW,5.8,-,0.00,Rain,Light Rain,250,2013-06-16 23:54:00
8:08 PM,73.9,66.9,79,29.91,2.5,West,18.4,40.3,0.00,Rain,Heavy Rain,280,2013-06-17 00:08:00
8:25 PM,71.1,68.0,90,29.90,6.0,West,8.1,-,0.08,Rain,Light Rain,260,2013-06-17 00:25:00
8:54 PM,70.0,66.9,90,29.89,10.0,WSW,6.9,-,0.08,,Scattered Clouds,250,2013-06-17 00:54:00
9:54 PM,70.0,68.0,93,29.91,10.0,SW,6.9,-,N/A,,Clear,230,2013-06-17 01:54:00
10:54 PM,69.1,68.0,96,29.91,10.0,WSW,5.8,-,N/A,,Clear,240,2013-06-17 02:54:00
11:54 PM,70.0,66.9,90,29.91,10.0,WSW,5.8,-,N/A,,Clear,240,2013-06-17 03:54:00